Starlink 4351

operational
NORAD ID: 53193 Int'l Des: 2022-084 Owner: SPXS Country: US Constellation: starlink
LEOCIRCULARRETROGRADESSO

Über Starlink 4351

Beschreibung wird geladen...

Live-Position

3D-Globus wird geladen...

Nächste Überflüge

Höhenverlauf

Altitude vs Time

uPlot chart will show altitude changes over time

Zweizeiliger Elementsatz

1 53193U 22084E 25299.14141388 -.00001826 00000-0 -13767-3 0 9990
2 53193 97.6020 358.4756 0003065 200.5189 159.5913 15.01251113180141
Epoch: 26. Okt. 2025 • Age: 11 hours

Aktueller Status

Höhe 590.8 km
Geschwindigkeit 7.56 km/s
Subsatellitenpunkt -81.81°S, 177.82°E
Startdatum 22. Juli 2022
Alter 3.2 years
Typ internet

Technische Details

Klassifizierung Payload
Masse 297.00 kg
Trockenmasse 275.00 kg
Gesamtmasse 297.00 kg
Länge 0.20 m
Durchmesser 2.80 m
Spannweite 9.00 m
Form Box + pan
Hersteller SPXS
Bus-Typ Starlink
Phasenstatus In Orbit
Besitzer/Staat SPXS/US

Große Konstellationen

Loading constellations...